Weather History for West Palm Beach, FL

Change the Weather History Date:

Friday, March 9, 2012

  Actual Average Record
Temperature  
Mean Temperature 76 °F 70 °F  
Max Temperature 81 °F 78 °F 91 °F (2003)
Min Temperature 71 °F 62 °F 35 °F (1914)
Degree Days  
Heating Degree Days 0 1  
Month to date heating degree days 3 9  
Since 1 July heating degree days 112 214  
Cooling Degree Days 11 6  
Month to date cooling degree days 65 52  
Year to date cooling degree days 381 287  
Growing Degree Days 26 (Base 50)    
Moisture  
Dew Point 67 °F    
Average Humidity 73    
Maximum Humidity 84    
Minimum Humidity 62    
Precipitation  
Precipitation T in 0.15 in 3.14 in (2005)
Month to date precipitation 0.48 1.21  
Year to date precipitation 4.68 7.16  
Snow  
Snow 0.00 in - - ()
Month to date snowfall 0.0  
Since 1 July snowfall 0.0  
Snow Depth 0.00 in    
Sea Level Pressure  
Sea Level Pressure 30.15 in    
Wind  
Wind Speed 11 mph (SE)    
Max Wind Speed 20 mph    
Max Gust Speed 25 mph    
Visibility 10 miles    
Events      
T = Trace of Precipitation, MM = Missing Value Source: NWS Daily Summary

Daily Weather History Graph

Daily Weather History Graph

Search for Another Location

Airport:

Trip Planner

Search our weather history database for the weather conditions in past years. The results will help you decide how hot, cold, wet, or windy it might be!

Date:

Astronomy

Mar. 09, 2012 Rise Set
Actual Time 6:35 AM EST 6:26 PM EST
Civil Twilight 6:12 AM EST 6:49 PM EST
Nautical Twilight 5:45 AM EST 7:16 PM EST
Astronomical Twilight 5:18 AM EST 7:43 PM EST
Moon 8:06 PM EST (3/9) 7:06 AM EST (3/9)
Length of Visible Light 12h 37m
Length of Day
11h 50m
Full, 98% of the Moon is Illuminated
Mar 9
Full
Mar 14
Last Quarter
Mar 22
New
Mar 30
First Quarter
Apr 6
Full

Hourly Weather History & Observations

Time (EST) Temp. Heat Index Dew Point Humidity Pressure Visibility Wind Dir Wind Speed Gust Speed Precip Events Conditions
12:53 AM 73.9 °F - 66.0 °F 76% 30.17 in 10.0 mi ESE 13.8 mph - N/A   Mostly Cloudy
1:53 AM 73.9 °F - 66.0 °F 76% 30.15 in 10.0 mi ESE 11.5 mph - 0.00 in   Mostly Cloudy
2:53 AM 73.0 °F - 66.0 °F 79% 30.13 in 10.0 mi ESE 12.7 mph - N/A   Mostly Cloudy
3:53 AM 73.0 °F - 66.9 °F 81% 30.12 in 10.0 mi ESE 8.1 mph - N/A   Mostly Cloudy
4:53 AM 73.0 °F - 66.0 °F 79% 30.13 in 10.0 mi ESE 10.4 mph - 0.00 in   Mostly Cloudy
5:53 AM 72.0 °F - 64.9 °F 78% 30.14 in 10.0 mi ESE 9.2 mph - N/A   Scattered Clouds
6:53 AM 73.0 °F - 66.0 °F 79% 30.16 in 10.0 mi ESE 11.5 mph - N/A   Scattered Clouds
7:53 AM 73.9 °F - 66.0 °F 76% 30.17 in 10.0 mi SE 8.1 mph - N/A   Mostly Cloudy
8:53 AM 77.0 °F - 66.9 °F 71% 30.19 in 10.0 mi SE 15.0 mph - N/A   Mostly Cloudy
9:53 AM 78.1 °F - 68.0 °F 71% 30.21 in 10.0 mi SE 13.8 mph - N/A   Mostly Cloudy
10:53 AM 79.0 °F - 68.0 °F 69% 30.20 in 10.0 mi SE 15.0 mph - N/A   Mostly Cloudy
11:53 AM 80.1 °F 82.3 °F 66.9 °F 64% 30.19 in 10.0 mi ESE 19.6 mph 24.2 mph N/A   Mostly Cloudy
12:53 PM 79.0 °F - 66.9 °F 66% 30.17 in 10.0 mi SE 17.3 mph - N/A   Mostly Cloudy
1:53 PM 81.0 °F 83.3 °F 66.9 °F 62% 30.13 in 10.0 mi SSE 16.1 mph - N/A   Mostly Cloudy
2:53 PM 79.0 °F - 66.9 °F 66% 30.11 in 10.0 mi SSE 16.1 mph - N/A   Mostly Cloudy
3:53 PM 78.1 °F - 66.9 °F 68% 30.11 in 10.0 mi SE 16.1 mph 23.0 mph N/A   Scattered Clouds
4:53 PM 77.0 °F - 66.9 °F 71% 30.11 in 10.0 mi SSE 10.4 mph - N/A   Scattered Clouds
5:53 PM 75.9 °F - 66.9 °F 74% 30.12 in 10.0 mi SE 10.4 mph - N/A   Scattered Clouds
6:53 PM 75.0 °F - 66.9 °F 76% 30.11 in 10.0 mi SE 8.1 mph - N/A   Scattered Clouds
7:53 PM 73.9 °F - 66.9 °F 79% 30.13 in 10.0 mi SE 5.8 mph - N/A   Scattered Clouds
8:53 PM 73.9 °F - 66.9 °F 79% 30.14 in 10.0 mi SE 6.9 mph - N/A   Scattered Clouds
9:53 PM 75.0 °F - 68.0 °F 79% 30.16 in 10.0 mi SSW 3.5 mph - N/A   Mostly Cloudy
10:53 PM 73.0 °F - 68.0 °F 84% 30.16 in 10.0 mi Calm Calm - N/A   Mostly Cloudy
11:53 PM 72.0 °F - 68.0 °F 87% 30.16 in 10.0 mi Calm Calm - N/A   Mostly Cloudy